Weather in Khorol

Ukraine / Poltava Region     49˚46′58″N   33˚15′00″E
temp.,
°C
wind,
m/s
gust,
m/s
humid.,
%
clouds,
%
prec.,
mm/h
press.,
hPa
HPBL,
m
3 december, thu
thu323:00−1˚ese479097 0.1 1029356
02:00−2˚ese479597 0.8 1029316
05:00−2˚ese369698 0.4 1028328
08:00−2˚ese369794 0.8 1028260
11:00ese469587 0.4 1028388
14:00ese469690 0.6 1027331
17:00+1˚ese489798 0.1 1027347
20:00ese499494 0.1 1027272
4 december, fri
fri423:00ese61088100 0.0 1027335
02:00−1˚ese4109283 0.0 1027290
05:00se5119575 0.0 1026361
08:00+1˚se6109488 0.0 1027480
11:00+1˚se61090100 0.0 1027467
14:00+1˚ese5987100 0.0 1027434
17:00ese5128965 0.0 1027426
20:00se6139250 0.0 1027459
5 december, sat
sat523:00+1˚se61088100 0.0 1028543
02:00+1˚se61087100 0.0 1029520
05:00ese61088100 0.0 1029502
08:00+1˚ese61086100 0.0 1030618
11:00+1˚ese6980100 0.0 1030602
14:00+1˚ese597780 0.0 1030517
17:00ese512820 0.0 1031370
20:00−1˚ese611750 0.0 1032351
6 december, sun
sun623:00−2˚ese511620 0.0 1033346
02:00−3˚ese511620 0.0 1034327
05:00−4˚e511620 0.0 1034321
08:00−4˚e511590 0.0 1035337
11:00−1˚e610490 0.0 1035427
14:00−1˚e610480 0.0 1034507
17:00−3˚e613580 0.0 1034417
20:00−4˚e613630 0.0 1035425
7 december, mon
mon723:00−4˚e612720 0.0 1035433
02:00−5˚e612730 0.0 1035438
05:00−6˚e612700 0.0 1034435
08:00−6˚e613670 0.0 1035442
11:00−3˚e712600 0.0 1035515
14:00−2˚e712540 0.0 1034628
17:00−4˚e614600 0.0 1034550
20:00−4˚e613620 0.0 1034523